WZZ95 LHBP-EBCI

Flight info

Callsign WZZ95
Flight time 1h 44m
Altitude 34000
Route GILEP DCT ZOLKU DCT BEGLA DCT DEXIT DCT EXITI DCT TEKTU DCT TESGA DCT UMUPU T880 ADMUM/N0373F240 T880 BATTY
Aircraft A21N/M-SDE1E2E3FGIJ1J4RWXY/LB1

Departure

Time 2026-05-04 01:36
Airport Budapest Liszt Ferenc International Airport (LHBP)

Arrival

Time 2026-05-04 03:20
Airport Brussels South Charleroi Airport (EBCI)
Time Latitude Longitude Altitude Speed Heading
2026-05-04 01:05 47.43431 19.25653 463 ft 0 kts 312°
2026-05-04 01:29 47.43418 19.25676 459 ft 4 kts 296°
2026-05-04 01:29 47.43413 19.25711 459 ft 4 kts 256°
2026-05-04 01:29 47.43422 19.25735 460 ft 0 kts 222°
2026-05-04 01:32 47.43416 19.25727 458 ft 4 kts 222°
2026-05-04 01:33 47.43384 19.25684 463 ft 9 kts 222°
2026-05-04 01:33 47.43333 19.25617 463 ft 11 kts 222°
2026-05-04 01:33 47.43293 19.25550 463 ft 8 kts 257°
2026-05-04 01:33 47.43321 19.25470 463 ft 10 kts 309°
2026-05-04 01:34 47.43336 19.25383 463 ft 9 kts 239°
2026-05-04 01:34 47.43287 19.25310 463 ft 11 kts 222°
2026-05-04 01:34 47.43228 19.25230 463 ft 12 kts 221°
2026-05-04 01:34 47.43160 19.25139 463 ft 14 kts 221°
2026-05-04 01:35 47.43089 19.25034 463 ft 15 kts 241°
2026-05-04 01:35 47.43128 19.24896 462 ft 17 kts 312°
2026-05-04 01:35 47.43314 19.24596 459 ft 75 kts 312°
2026-05-04 01:35 47.43822 19.23777 460 ft 142 kts 312°
2026-05-04 01:36 47.44585 19.22559 760 ft 163 kts 313°
2026-05-04 01:36 47.45335 19.21307 1403 ft 166 kts 308°
2026-05-04 01:36 47.46121 19.19970 1889 ft 179 kts 307°
2026-05-04 01:36 47.46984 19.18561 2388 ft 191 kts 308°
2026-05-04 01:37 47.47909 19.17068 2897 ft 203 kts 310°
2026-05-04 01:37 47.48725 19.15307 3354 ft 217 kts 286°
2026-05-04 01:37 47.48840 19.13010 3634 ft 237 kts 255°
2026-05-04 01:37 47.48297 19.10612 4098 ft 254 kts 245°
2026-05-04 01:38 47.47672 19.08112 4811 ft 264 kts 256°
2026-05-04 01:38 47.47348 19.05440 5617 ft 269 kts 259°
2026-05-04 01:38 47.47042 19.02695 6459 ft 272 kts 259°
2026-05-04 01:38 47.46724 18.99906 7237 ft 276 kts 259°
2026-05-04 01:39 47.46391 18.97087 8008 ft 280 kts 259°
2026-05-04 01:39 47.46046 18.94227 8754 ft 284 kts 259°
2026-05-04 01:39 47.45693 18.91365 9495 ft 289 kts 259°
2026-05-04 01:39 47.45323 18.88423 10168 ft 296 kts 259°
2026-05-04 01:40 47.44932 18.85338 10520 ft 313 kts 259°
2026-05-04 01:40 47.44514 18.82082 10863 ft 330 kts 259°
2026-05-04 01:40 47.44079 18.78699 11359 ft 340 kts 259°
2026-05-04 01:40 47.43634 18.75240 12036 ft 344 kts 259°
2026-05-04 01:41 47.43177 18.71762 12780 ft 346 kts 259°
2026-05-04 01:41 47.42719 18.68250 13494 ft 350 kts 259°
2026-05-04 01:41 47.42258 18.64696 14171 ft 353 kts 259°
2026-05-04 01:41 47.41836 18.61166 14875 ft 354 kts 263°
2026-05-04 01:42 47.41884 18.57518 15517 ft 356 kts 281°
2026-05-04 01:42 47.42522 18.53955 16128 ft 360 kts 288°
2026-05-04 01:42 47.43281 18.50426 16775 ft 363 kts 289°
2026-05-04 01:42 47.44046 18.46844 17442 ft 365 kts 288°
2026-05-04 01:43 47.44786 18.43284 18068 ft 368 kts 288°
2026-05-04 01:43 47.45538 18.39645 18663 ft 371 kts 288°
2026-05-04 01:43 47.46290 18.35974 19219 ft 374 kts 288°
2026-05-04 01:43 47.47046 18.32269 19754 ft 376 kts 288°
2026-05-04 01:44 47.47801 18.28545 20330 ft 379 kts 288°
2026-05-04 01:44 47.48512 18.24823 20873 ft 381 kts 285°
2026-05-04 01:44 47.49151 18.20994 21417 ft 383 kts 285°
2026-05-04 01:44 47.49781 18.17151 21950 ft 386 kts 284°
2026-05-04 01:45 47.50407 18.13291 22515 ft 387 kts 284°
2026-05-04 01:45 47.51040 18.09409 23048 ft 389 kts 285°
2026-05-04 01:45 47.52325 18.01564 23959 ft 395 kts 284°
2026-05-04 01:46 47.52974 17.97597 24357 ft 398 kts 285°
2026-05-04 01:46 47.53633 17.93609 24756 ft 400 kts 285°
2026-05-04 01:46 47.54286 17.89640 25158 ft 402 kts 285°
2026-05-04 01:46 47.54946 17.85596 25563 ft 404 kts 285°
2026-05-04 01:47 47.55709 17.81576 25947 ft 406 kts 291°
2026-05-04 01:47 47.56896 17.77779 26328 ft 406 kts 300°
2026-05-04 01:47 47.58322 17.74158 26707 ft 408 kts 302°
2026-05-04 01:47 47.59792 17.70532 27094 ft 410 kts 302°
2026-05-04 01:48 47.61234 17.66936 27458 ft 412 kts 301°
2026-05-04 01:48 47.62702 17.63266 27816 ft 414 kts 302°
2026-05-04 01:48 47.64169 17.59577 28184 ft 416 kts 301°
2026-05-04 01:48 47.65639 17.55857 28536 ft 418 kts 301°
2026-05-04 01:49 47.67116 17.52126 28885 ft 420 kts 301°
2026-05-04 01:49 47.68599 17.48380 29218 ft 421 kts 301°
2026-05-04 01:49 47.70085 17.44623 29539 ft 423 kts 301°
2026-05-04 01:49 47.71554 17.40871 29860 ft 425 kts 301°
2026-05-04 01:50 47.73051 17.37072 30157 ft 427 kts 301°
2026-05-04 01:50 47.74556 17.33255 30418 ft 428 kts 301°
2026-05-04 01:50 47.76064 17.29420 30669 ft 430 kts 301°
2026-05-04 01:50 47.77574 17.25560 30926 ft 432 kts 301°
2026-05-04 01:51 47.79087 17.21690 31185 ft 433 kts 301°
2026-05-04 01:51 47.80578 17.17867 31500 ft 432 kts 301°
2026-05-04 01:51 47.82092 17.13987 31812 ft 431 kts 301°
2026-05-04 01:51 47.83498 17.10026 32116 ft 432 kts 296°
2026-05-04 01:52 47.84714 17.05939 32402 ft 432 kts 295°
2026-05-04 01:52 47.85908 17.01838 32677 ft 431 kts 295°
2026-05-04 01:52 47.87100 16.97743 32949 ft 431 kts 295°
2026-05-04 01:52 47.88277 16.93691 33215 ft 430 kts 295°
2026-05-04 01:53 47.89460 16.89589 33473 ft 430 kts 295°
2026-05-04 01:53 47.90647 16.85507 33721 ft 429 kts 295°
2026-05-04 01:53 47.91837 16.81429 33963 ft 429 kts 295°
2026-05-04 01:53 47.93028 16.77337 34075 ft 429 kts 295°
2026-05-04 01:54 47.95380 16.69204 34060 ft 428 kts 295°
2026-05-04 01:54 47.97726 16.61054 34050 ft 428 kts 294°
2026-05-04 01:55 48.00069 16.52880 34047 ft 428 kts 294°
2026-05-04 01:55 48.02417 16.44681 34045 ft 429 kts 294°
2026-05-04 01:56 48.04763 16.36470 34040 ft 429 kts 294°
2026-05-04 01:56 48.07083 16.28318 34036 ft 429 kts 294°
2026-05-04 01:57 48.09421 16.20068 34024 ft 429 kts 294°
2026-05-04 01:57 48.11748 16.11807 34011 ft 430 kts 293°
2026-05-04 01:58 48.14059 16.03607 34004 ft 430 kts 293°
2026-05-04 01:58 48.16376 15.95341 33999 ft 430 kts 293°
2026-05-04 01:59 48.18687 15.87064 33999 ft 429 kts 293°
2026-05-04 01:59 48.20974 15.78844 33995 ft 429 kts 292°
2026-05-04 02:00 48.23274 15.70559 33998 ft 429 kts 292°
2026-05-04 02:00 48.25548 15.62318 33995 ft 429 kts 292°
2026-05-04 02:01 48.27810 15.54018 33993 ft 429 kts 292°
2026-05-04 02:01 48.30074 15.45712 33997 ft 429 kts 292°
2026-05-04 02:02 48.32348 15.37425 33996 ft 429 kts 292°
2026-05-04 02:02 48.34623 15.29182 33999 ft 429 kts 291°
2026-05-04 02:03 48.36888 15.20874 34002 ft 429 kts 291°
2026-05-04 02:03 48.39139 15.12545 33994 ft 429 kts 291°
2026-05-04 02:04 48.41384 15.04231 33999 ft 429 kts 290°
2026-05-04 02:04 48.43592 14.95951 33998 ft 428 kts 291°
2026-05-04 02:05 48.45822 14.87619 33997 ft 428 kts 290°
2026-05-04 02:05 48.48040 14.79293 33993 ft 428 kts 290°
2026-05-04 02:06 48.50250 14.70964 33993 ft 427 kts 290°
2026-05-04 02:06 48.52465 14.62694 33994 ft 427 kts 290°
2026-05-04 02:07 48.54678 14.54361 33979 ft 427 kts 290°
2026-05-04 02:07 48.56856 14.46060 33995 ft 427 kts 290°
2026-05-04 02:08 48.59045 14.37712 33997 ft 427 kts 290°
2026-05-04 02:08 48.61214 14.29398 34001 ft 427 kts 290°
2026-05-04 02:09 48.63389 14.21041 34004 ft 427 kts 290°
2026-05-04 02:09 48.65564 14.12666 33997 ft 426 kts 290°
2026-05-04 02:10 48.67725 14.04302 34004 ft 426 kts 290°
2026-05-04 02:10 48.69882 13.95941 33999 ft 426 kts 289°
2026-05-04 02:11 48.72006 13.87633 33996 ft 426 kts 289°
2026-05-04 02:11 48.74144 13.79256 33998 ft 425 kts 289°
2026-05-04 02:12 48.75920 13.72304 33998 ft 425 kts 290°
2026-05-04 02:12 48.79103 13.63021 34003 ft 427 kts 296°
2026-05-04 02:13 48.81497 13.56454 34008 ft 427 kts 296°
2026-05-04 02:13 48.84365 13.48536 34017 ft 427 kts 296°
2026-05-04 02:14 48.87171 13.40644 34013 ft 426 kts 295°
2026-05-04 02:14 48.89998 13.32724 34016 ft 425 kts 295°
2026-05-04 02:15 48.92826 13.24786 34017 ft 426 kts 295°
2026-05-04 02:15 48.95638 13.16903 34019 ft 426 kts 295°
2026-05-04 02:16 48.98461 13.08956 34019 ft 425 kts 295°
2026-05-04 02:16 49.01272 13.01030 34023 ft 425 kts 295°
2026-05-04 02:17 49.04064 12.93142 34021 ft 425 kts 295°
2026-05-04 02:17 49.06853 12.85193 34024 ft 424 kts 295°
2026-05-04 02:18 49.09636 12.77244 34022 ft 424 kts 295°
2026-05-04 02:18 49.12425 12.69346 34025 ft 424 kts 295°
2026-05-04 02:19 49.15209 12.61376 34024 ft 424 kts 295°
2026-05-04 02:19 49.17957 12.53435 34026 ft 424 kts 294°
2026-05-04 02:20 49.20698 12.45477 34018 ft 424 kts 294°
2026-05-04 02:20 49.23456 12.37474 34020 ft 424 kts 295°
2026-05-04 02:21 49.26213 12.29477 34024 ft 423 kts 295°
2026-05-04 02:21 49.28937 12.21534 34032 ft 423 kts 294°
2026-05-04 02:22 49.31685 12.13553 34038 ft 422 kts 295°
2026-05-04 02:22 49.34415 12.05635 34042 ft 420 kts 294°
2026-05-04 02:23 49.37130 11.97666 34045 ft 420 kts 294°
2026-05-04 02:23 49.39805 11.89761 34035 ft 419 kts 294°
2026-05-04 02:24 49.42497 11.81799 34035 ft 420 kts 294°
2026-05-04 02:24 49.45190 11.73809 34035 ft 420 kts 294°
2026-05-04 02:25 49.47870 11.65811 34033 ft 421 kts 294°
2026-05-04 02:25 49.50538 11.57849 34031 ft 421 kts 294°
2026-05-04 02:26 49.53225 11.49813 34032 ft 421 kts 293°
2026-05-04 02:26 49.55875 11.41825 34038 ft 420 kts 294°
2026-05-04 02:27 49.58686 11.33906 34031 ft 420 kts 295°
2026-05-04 02:27 49.61496 11.26067 34038 ft 419 kts 295°
2026-05-04 02:28 49.64309 11.18187 34031 ft 418 kts 295°
2026-05-04 02:28 49.67095 11.10300 34035 ft 417 kts 294°
2026-05-04 02:29 49.69861 11.02414 34039 ft 417 kts 295°
2026-05-04 02:29 49.72625 10.94583 34053 ft 417 kts 295°
2026-05-04 02:30 49.75400 10.86694 34050 ft 417 kts 294°
2026-05-04 02:30 49.78177 10.78845 34041 ft 418 kts 295°
2026-05-04 02:31 49.80953 10.70934 34038 ft 417 kts 294°
2026-05-04 02:31 49.83683 10.63038 34031 ft 417 kts 295°
2026-05-04 02:32 49.86453 10.55130 34031 ft 418 kts 295°
2026-05-04 02:32 49.89231 10.47193 34027 ft 417 kts 295°
2026-05-04 02:33 49.91955 10.39301 34023 ft 417 kts 295°
2026-05-04 02:33 49.94701 10.31344 34022 ft 417 kts 295°
2026-05-04 02:34 49.97429 10.23389 34021 ft 417 kts 294°
2026-05-04 02:34 50.00145 10.15461 34023 ft 417 kts 294°
2026-05-04 02:35 50.02864 10.07488 34014 ft 417 kts 294°
2026-05-04 02:35 50.05558 9.99487 34023 ft 417 kts 294°
2026-05-04 02:36 50.08268 9.91480 34014 ft 417 kts 294°
2026-05-04 02:36 50.10968 9.83538 34018 ft 417 kts 294°
2026-05-04 02:37 50.13678 9.75524 34015 ft 417 kts 294°
2026-05-04 02:37 50.16385 9.67510 34022 ft 417 kts 294°
2026-05-04 02:38 50.19060 9.59540 34009 ft 416 kts 293°
2026-05-04 02:38 50.21738 9.51527 34012 ft 416 kts 293°
2026-05-04 02:39 50.24406 9.43488 34012 ft 416 kts 293°
2026-05-04 02:39 50.27060 9.35454 34016 ft 416 kts 292°
2026-05-04 02:40 50.29696 9.27419 34012 ft 416 kts 292°
2026-05-04 02:40 50.32357 9.19367 34009 ft 416 kts 293°
2026-05-04 02:41 50.34762 9.11243 34005 ft 410 kts 284°
2026-05-04 02:41 50.36467 9.02722 34001 ft 410 kts 283°
2026-05-04 02:42 50.38136 8.94185 33996 ft 410 kts 283°
2026-05-04 02:42 50.39821 8.85630 34001 ft 410 kts 283°
2026-05-04 02:43 50.41478 8.77157 34002 ft 410 kts 283°
2026-05-04 02:43 50.43147 8.68589 34000 ft 410 kts 283°
2026-05-04 02:44 50.44682 8.59987 33999 ft 406 kts 276°
2026-05-04 02:44 50.45549 8.51306 33999 ft 405 kts 275°
2026-05-04 02:45 50.46397 8.42545 34005 ft 405 kts 275°
2026-05-04 02:45 50.47260 8.33789 34001 ft 405 kts 275°
2026-05-04 02:46 50.48113 8.25092 33996 ft 405 kts 275°
2026-05-04 02:46 50.48956 8.16380 33996 ft 406 kts 275°
2026-05-04 02:47 50.49822 8.07561 33996 ft 406 kts 275°
2026-05-04 02:47 50.50678 7.98778 33997 ft 406 kts 275°
2026-05-04 02:48 50.51514 7.89987 33995 ft 406 kts 275°
2026-05-04 02:48 50.52343 7.81256 33998 ft 407 kts 274°
2026-05-04 02:49 50.53166 7.72449 34001 ft 407 kts 274°
2026-05-04 02:49 50.53983 7.63618 34001 ft 407 kts 274°
2026-05-04 02:50 50.54791 7.54847 34004 ft 407 kts 274°
2026-05-04 02:50 50.55589 7.46055 34001 ft 408 kts 274°
2026-05-04 02:51 50.55919 7.37191 33993 ft 404 kts 267°
2026-05-04 02:51 50.55975 7.28329 33994 ft 405 kts 267°
2026-05-04 02:52 50.56035 7.19467 33996 ft 405 kts 267°
2026-05-04 02:52 50.55907 7.10674 33993 ft 404 kts 264°
2026-05-04 02:53 50.55706 7.01837 33985 ft 402 kts 264°
2026-05-04 02:53 50.55495 6.93109 33980 ft 400 kts 264°
2026-05-04 02:54 50.55278 6.84390 33976 ft 398 kts 264°
2026-05-04 02:54 50.55059 6.75697 33977 ft 396 kts 264°
2026-05-04 02:55 50.55635 6.62752 33974 ft 402 kts 276°
2026-05-04 02:56 50.56727 6.54059 33969 ft 407 kts 276°
2026-05-04 02:56 50.57796 6.45365 33972 ft 406 kts 276°
2026-05-04 02:57 50.58851 6.36624 33907 ft 405 kts 276°
2026-05-04 02:57 50.59373 6.32311 33578 ft 394 kts 276°
2026-05-04 02:57 50.59878 6.28124 33286 ft 384 kts 275°
2026-05-04 02:57 50.60358 6.24073 33014 ft 379 kts 275°
2026-05-04 02:58 50.60836 6.19997 32745 ft 375 kts 275°
2026-05-04 02:58 50.61308 6.15960 32407 ft 372 kts 275°
2026-05-04 02:58 50.61777 6.11966 31942 ft 368 kts 275°
2026-05-04 02:58 50.62240 6.08017 31440 ft 365 kts 275°
2026-05-04 02:59 50.62689 6.04135 30945 ft 362 kts 275°
2026-05-04 02:59 50.63137 6.00244 30450 ft 360 kts 275°
2026-05-04 02:59 50.63587 5.96369 29968 ft 357 kts 275°
2026-05-04 02:59 50.64029 5.92525 29396 ft 354 kts 275°
2026-05-04 03:00 50.64320 5.89998 29031 ft 352 kts 275°
2026-05-04 03:00 50.64787 5.86219 28528 ft 351 kts 278°
2026-05-04 03:00 50.65964 5.81439 27926 ft 354 kts 289°
2026-05-04 03:00 50.66701 5.79152 27618 ft 352 kts 290°
2026-05-04 03:01 50.67827 5.75735 27160 ft 349 kts 290°
2026-05-04 03:01 50.68932 5.72347 26704 ft 346 kts 290°
2026-05-04 03:01 50.70031 5.68965 26248 ft 344 kts 290°
2026-05-04 03:01 50.71111 5.65598 25797 ft 342 kts 290°
2026-05-04 03:02 50.72166 5.62303 25359 ft 340 kts 290°
2026-05-04 03:02 50.73227 5.58984 24927 ft 338 kts 290°
2026-05-04 03:02 50.74284 5.55680 24473 ft 337 kts 290°
2026-05-04 03:02 50.75337 5.52380 24021 ft 336 kts 290°
2026-05-04 03:03 50.76392 5.49080 23571 ft 335 kts 290°
2026-05-04 03:03 50.77433 5.45796 23083 ft 334 kts 290°
2026-05-04 03:03 50.78471 5.42520 22615 ft 332 kts 290°
2026-05-04 03:03 50.79486 5.39310 22152 ft 330 kts 290°
2026-05-04 03:04 50.80506 5.36067 21695 ft 328 kts 290°
2026-05-04 03:04 50.81524 5.32834 21249 ft 326 kts 290°
2026-05-04 03:04 50.82543 5.29630 20795 ft 325 kts 290°
2026-05-04 03:04 50.83556 5.26451 20369 ft 323 kts 290°
2026-05-04 03:05 50.84564 5.23278 19961 ft 321 kts 290°
2026-05-04 03:05 50.85555 5.20119 19556 ft 319 kts 290°
2026-05-04 03:05 50.86534 5.17019 19163 ft 317 kts 290°
2026-05-04 03:05 50.87447 5.13844 18738 ft 312 kts 283°
2026-05-04 03:06 50.87859 5.10516 18342 ft 304 kts 270°
2026-05-04 03:06 50.87886 5.10034 18287 ft 304 kts 270°
2026-05-04 03:06 50.88011 5.07039 17902 ft 302 kts 269°
2026-05-04 03:06 50.88119 5.03760 17499 ft 300 kts 269°
2026-05-04 03:07 50.88234 5.00465 17095 ft 298 kts 269°
2026-05-04 03:07 50.88361 4.97190 16717 ft 297 kts 270°
2026-05-04 03:07 50.88497 4.93922 16346 ft 297 kts 270°
2026-05-04 03:07 50.88636 4.90659 15997 ft 296 kts 270°
2026-05-04 03:08 50.88772 4.87440 15653 ft 296 kts 270°
2026-05-04 03:08 50.88909 4.84188 15320 ft 296 kts 270°
2026-05-04 03:08 50.89053 4.80926 14972 ft 296 kts 270°
2026-05-04 03:08 50.89194 4.77662 14598 ft 297 kts 271°
2026-05-04 03:09 50.89329 4.74380 14220 ft 299 kts 270°
2026-05-04 03:09 50.89463 4.71081 13856 ft 301 kts 271°
2026-05-04 03:09 50.89602 4.67759 13457 ft 302 kts 271°
2026-05-04 03:09 50.89734 4.64474 13067 ft 302 kts 271°
2026-05-04 03:10 50.89875 4.61146 12691 ft 303 kts 271°
2026-05-04 03:10 50.89993 4.57819 12312 ft 302 kts 267°
2026-05-04 03:10 50.89648 4.54581 11906 ft 298 kts 247°
2026-05-04 03:10 50.88571 4.51842 11526 ft 297 kts 226°
2026-05-04 03:11 50.86977 4.49747 11147 ft 290 kts 217°
2026-05-04 03:11 50.85371 4.47909 10772 ft 285 kts 217°
2026-05-04 03:11 50.83776 4.46088 10404 ft 281 kts 217°
2026-05-04 03:11 50.82169 4.44394 10009 ft 276 kts 207°
2026-05-04 03:12 50.80323 4.43555 9476 ft 279 kts 187°
2026-05-04 03:12 50.78384 4.43860 8963 ft 283 kts 166°
2026-05-04 03:12 50.76592 4.45205 8475 ft 287 kts 151°
2026-05-04 03:12 50.74923 4.46937 8015 ft 286 kts 149°
2026-05-04 03:13 50.73269 4.48666 7559 ft 284 kts 150°
2026-05-04 03:13 50.71612 4.50361 7145 ft 283 kts 150°
2026-05-04 03:13 50.69958 4.52029 6717 ft 281 kts 150°
2026-05-04 03:13 50.68323 4.53663 6293 ft 280 kts 150°
2026-05-04 03:14 50.66683 4.55292 5863 ft 278 kts 150°
2026-05-04 03:14 50.65052 4.56907 5423 ft 275 kts 150°
2026-05-04 03:14 50.63434 4.58505 4895 ft 273 kts 150°
2026-05-04 03:14 50.61824 4.60093 4316 ft 272 kts 150°
2026-05-04 03:15 50.60225 4.61664 3787 ft 270 kts 150°
2026-05-04 03:15 50.58657 4.63199 3572 ft 261 kts 150°
2026-05-04 03:15 50.57147 4.64677 3419 ft 249 kts 150°
2026-05-04 03:15 50.55707 4.66087 3261 ft 237 kts 150°
2026-05-04 03:16 50.54313 4.67276 3084 ft 223 kts 163°
2026-05-04 03:16 50.52844 4.67645 2963 ft 207 kts 186°
2026-05-04 03:16 50.51651 4.66893 2971 ft 173 kts 227°
2026-05-04 03:16 50.51245 4.65323 2990 ft 150 kts 262°
2026-05-04 03:17 50.51093 4.63714 2894 ft 148 kts 258°
2026-05-04 03:17 50.50811 4.62163 2725 ft 148 kts 251°
2026-05-04 03:17 50.50438 4.60654 2532 ft 148 kts 248°
2026-05-04 03:17 50.50022 4.59178 2340 ft 147 kts 246°
2026-05-04 03:18 50.49598 4.57717 2118 ft 147 kts 247°
2026-05-04 03:18 50.49185 4.56253 1882 ft 146 kts 246°
2026-05-04 03:18 50.48758 4.54808 1711 ft 145 kts 246°
2026-05-04 03:18 50.48344 4.53360 1500 ft 145 kts 246°
2026-05-04 03:19 50.47925 4.51915 1314 ft 146 kts 246°
2026-05-04 03:19 50.47502 4.50459 1112 ft 147 kts 244°
2026-05-04 03:19 50.47073 4.49003 925 ft 147 kts 244°
2026-05-04 03:19 50.46652 4.47561 727 ft 147 kts 244°
2026-05-04 03:20 50.46229 4.46133 622 ft 134 kts 246°
2026-05-04 03:20 50.45969 4.45227 621 ft 47 kts 245°
2026-05-04 03:20 50.45891 4.44963 628 ft 24 kts 245°
2026-05-04 03:20 50.45922 4.44790 623 ft 17 kts 338°
2026-05-04 03:21 50.46011 4.44784 622 ft 14 kts 34°
2026-05-04 03:21 50.46060 4.44920 624 ft 15 kts 66°
2026-05-04 03:21 50.46106 4.45081 620 ft 17 kts 65°
2026-05-04 03:21 50.46159 4.45255 627 ft 18 kts 65°
2026-05-04 03:22 50.46214 4.45446 625 ft 20 kts 65°
2026-05-04 03:22 50.46272 4.45649 630 ft 21 kts 66°
2026-05-04 03:22 50.46334 4.45868 624 ft 23 kts 66°
2026-05-04 03:22 50.46386 4.46046 623 ft 17 kts 65°
2026-05-04 03:23 50.46438 4.46223 626 ft 19 kts 65°
2026-05-04 03:23 50.46494 4.46415 624 ft 20 kts 65°
2026-05-04 03:23 50.46553 4.46616 626 ft 16 kts 65°
2026-05-04 03:23 50.46586 4.46730 626 ft 10 kts 65°
2026-05-04 03:24 50.46643 4.46795 621 ft 10 kts
2026-05-04 03:24 50.46699 4.46862 618 ft 12 kts 64°
2026-05-04 03:24 50.46733 4.46987 622 ft 10 kts 66°
2026-05-04 03:24 50.46759 4.47078 625 ft 6 kts 64°
2026-05-04 03:25 50.46785 4.47143 620 ft 8 kts 26°
2026-05-04 03:25 50.46834 4.47124 626 ft 6 kts 334°
2026-05-04 03:25 50.46870 4.47098 626 ft 4 kts 335°
2026-05-04 03:25 50.46871 4.47097 628 ft 0 kts 335°